Oakland, MD

6:40 PM EDT on May 27, 2018 (GMT -0400)
Oakland

Weather History for K2G4 - January, 2013

Change the Weather History Date:

Tuesday, January 29, 2013

  Actual Average (KMGW) Record (KMGW)
Temperature  
Mean Temperature 53 °F -  
Max Temperature 60 °F 39 °F 79 °F (1914)
Min Temperature 46 °F 21 °F -12 °F (1963)
Degree Days  
Heating Degree Days 12    
Growing Degree Days 3 (Base 50)    
Moisture  
Dew Point 49 °F    
Average Humidity 92    
Maximum Humidity 100    
Minimum Humidity 68    
Precipitation  
Precipitation 0.00 in - - ()
Sea Level Pressure  
Sea Level Pressure 30.03 in    
Wind  
Wind Speed 12 mph (SW)    
Max Wind Speed 17 mph    
Max Gust Speed 24 mph    
Visibility 6 miles    
Events Fog    
Averages and records for this station are not official NWS values.
T = Trace of Precipitation, MM = Missing Value Source: NWS Daily Summary

Daily Weather History Graph

Daily Weather History Graph

Search for Another Location

Airport or City:

Astronomy

Jan. 29, 2013 Rise Set
Actual Time 7:27 AM EST 5:34 PM EST
Civil Twilight 6:58 AM EST 6:02 PM EST
Nautical Twilight 6:26 AM EST 6:35 PM EST
Astronomical Twilight 5:54 AM EST 7:06 PM EST
Moon 8:27 PM EST (1/29) 8:24 AM EST (1/29)
Length of Visible Light 11h 03m
Length of Day
10h 06m
Waning Gibbous, 94% of the Moon is Illuminated
Jan 29
Waning Gibbous
Feb 3
Last Quarter
Feb 10
New
Feb 17
First Quarter
Feb 25
Full

Hourly Weather History & Observations

Time (EST) Temp. Windchill Dew Point Humidity Pressure Visibility Wind Dir Wind Speed Gust Speed Precip Events Conditions
12:15 AM 46.4 °F 40.7 °F 46.4 °F 100% 30.05 in 0.2 mi West 12.7 mph 20.7 mph N/A Fog Fog
12:35 AM 46.4 °F 42.4 °F 46.4 °F 100% 30.04 in 0.2 mi West 8.1 mph 20.7 mph N/A Fog Fog
12:55 AM 46.4 °F 42.4 °F 46.4 °F 100% 30.05 in 0.2 mi West 8.1 mph 20.7 mph N/A Fog Fog
1:20 AM 46.4 °F 40.4 °F 46.4 °F 100% 30.04 in 0.2 mi WSW 13.8 mph 21.9 mph N/A Fog Fog
1:40 AM 46.4 °F 41.1 °F 46.4 °F 100% 30.05 in 0.2 mi West 11.5 mph 19.6 mph N/A Fog Fog
2:00 AM 46.4 °F 41.5 °F 46.4 °F 100% 30.05 in 0.2 mi WSW 10.4 mph 19.6 mph N/A Fog Fog
2:25 AM 46.4 °F 40.7 °F 46.4 °F 100% 30.05 in 0.2 mi WSW 12.7 mph 21.9 mph N/A Fog Fog
2:45 AM 46.4 °F 40.7 °F 46.4 °F 100% 30.05 in 0.2 mi WSW 12.7 mph 19.6 mph N/A Fog Fog
3:05 AM 46.4 °F 41.1 °F 46.4 °F 100% 30.05 in 0.2 mi WSW 11.5 mph 20.7 mph N/A Fog Fog
3:25 AM 46.4 °F 41.5 °F 46.4 °F 100% 30.05 in 0.2 mi WSW 10.4 mph 17.3 mph N/A Fog Fog
3:50 AM 46.4 °F 41.9 °F 46.4 °F 100% 30.05 in 0.2 mi WSW 9.2 mph - N/A Fog Fog
4:10 AM 46.4 °F 40.7 °F 46.4 °F 100% 30.06 in 0.2 mi WSW 12.7 mph 19.6 mph N/A Fog Fog
4:30 AM 46.4 °F 40.7 °F 46.4 °F 100% 30.06 in 0.2 mi WSW 12.7 mph 19.6 mph N/A Fog Fog
4:50 AM 46.4 °F 40.7 °F 46.4 °F 100% 30.06 in 0.2 mi WSW 12.7 mph 21.9 mph N/A Fog Fog
5:15 AM 46.4 °F 40.7 °F 46.4 °F 100% 30.06 in 0.2 mi WSW 12.7 mph 19.6 mph N/A Fog Fog
5:35 AM 46.4 °F 40.7 °F 46.4 °F 100% 30.06 in 0.2 mi West 12.7 mph 20.7 mph N/A Fog Fog
5:55 AM 46.4 °F 40.4 °F 46.4 °F 100% 30.06 in 0.2 mi WSW 13.8 mph 20.7 mph N/A Fog Fog
6:15 AM 46.4 °F 40.4 °F 46.4 °F 100% 30.05 in 0.2 mi WSW 13.8 mph 20.7 mph N/A Fog Fog
6:40 AM 46.4 °F 40.7 °F 46.4 °F 100% 30.05 in 0.2 mi WSW 12.7 mph 21.9 mph N/A Fog Fog
7:00 AM 46.4 °F 40.7 °F 46.4 °F 100% 30.06 in 0.2 mi WSW 12.7 mph 21.9 mph N/A Fog Fog
7:20 AM 46.4 °F 40.7 °F 46.4 °F 100% 30.06 in 0.2 mi WSW 12.7 mph 20.7 mph N/A Fog Fog
7:40 AM 46.4 °F 41.1 °F 46.4 °F 100% 30.08 in 0.2 mi WSW 11.5 mph 20.7 mph N/A Fog Fog
8:05 AM 46.4 °F 40.7 °F 46.4 °F 100% 30.08 in 0.2 mi WSW 12.7 mph 18.4 mph N/A Fog Fog
8:25 AM 46.4 °F 41.5 °F 46.4 °F 100% 30.08 in 0.2 mi WSW 10.4 mph 19.6 mph N/A Fog Fog
8:45 AM 46.4 °F 41.1 °F 46.4 °F 100% 30.08 in 0.2 mi WSW 11.5 mph 19.6 mph N/A Fog Fog
9:05 AM 46.4 °F 41.5 °F 46.4 °F 100% 30.09 in 0.2 mi WSW 10.4 mph 20.7 mph N/A Fog Fog
9:30 AM 48.2 °F - 48.2 °F 100% 30.09 in 0.2 mi WSW 13.8 mph 21.9 mph N/A Fog Fog
9:50 AM 48.2 °F - 48.2 °F 100% 30.09 in 0.5 mi SW 11.5 mph 19.6 mph N/A Fog Fog
10:10 AM 48.2 °F - 48.2 °F 100% 30.09 in 2.0 mi SW 10.4 mph 17.3 mph N/A   Overcast
10:30 AM 48.2 °F - 48.2 °F 100% 30.09 in 4.0 mi SW 10.4 mph 19.6 mph N/A   Overcast
10:55 AM 50.0 °F - 50.0 °F 100% 30.09 in 10.0 mi SW 15.0 mph 20.7 mph N/A   Overcast
11:15 AM 50.0 °F - 50.0 °F 100% 30.09 in 10.0 mi SW 11.5 mph 18.4 mph N/A   Overcast
11:35 AM 50.0 °F - 50.0 °F 100% 30.07 in 10.0 mi SW 17.3 mph 23.0 mph N/A   Overcast
11:55 AM 51.8 °F - 51.8 °F 100% 30.06 in 10.0 mi SSW 16.1 mph 23.0 mph N/A   Overcast
12:20 PM 51.8 °F - 51.8 °F 100% 30.06 in 10.0 mi SW 11.5 mph 24.2 mph N/A   Overcast
12:40 PM 53.6 °F - 53.6 °F 100% 30.05 in 10.0 mi SW 13.8 mph 20.7 mph N/A   Overcast
1:00 PM 53.6 °F - 53.6 °F 100% 30.05 in 10.0 mi SSW 13.8 mph 18.4 mph N/A   Overcast
1:20 PM 53.6 °F - 51.8 °F 94% 30.05 in 10.0 mi SW 11.5 mph 21.9 mph N/A   Overcast
1:45 PM 55.4 °F - 51.8 °F 88% 30.04 in 10.0 mi SSW 16.1 mph 19.6 mph N/A   Overcast
2:05 PM 55.4 °F - 51.8 °F 88% 30.03 in 10.0 mi SW 10.4 mph 17.3 mph N/A   Scattered Clouds
2:25 PM 57.2 °F - 51.8 °F 82% 30.02 in 10.0 mi SW 13.8 mph 21.9 mph N/A   Clear
2:45 PM 59.0 °F - 51.8 °F 77% 30.02 in 10.0 mi SW 15.0 mph 21.9 mph N/A   Clear
3:10 PM 59.0 °F - 50.0 °F 72% 30.02 in 10.0 mi WSW 15.0 mph 21.9 mph N/A   Clear
3:30 PM 59.0 °F - 50.0 °F 72% 30.02 in 10.0 mi WSW 12.7 mph 21.9 mph N/A   Clear
3:50 PM 60.8 °F - 50.0 °F 68% 30.01 in 10.0 mi SW 10.4 mph 24.2 mph N/A   Clear
4:10 PM 59.0 °F - 50.0 °F 72% 30.01 in 10.0 mi SW 11.5 mph 19.6 mph N/A   Clear
4:30 PM 59.0 °F - 50.0 °F 72% 30.01 in 10.0 mi SW 9.2 mph 17.3 mph N/A   Clear
4:55 PM 59.0 °F - 50.0 °F 72% 30.00 in 10.0 mi SSW 11.5 mph 18.4 mph N/A   Clear
5:15 PM 55.4 °F - 50.0 °F 82% 30.00 in 10.0 mi South 9.2 mph - N/A   Clear
5:35 PM 55.4 °F - 50.0 °F 82% 30.00 in 10.0 mi South 10.4 mph - N/A   Clear
5:55 PM 55.4 °F - 50.0 °F 82% 29.99 in 10.0 mi South 9.2 mph - N/A   Clear
6:20 PM 55.4 °F - 50.0 °F 82% 29.99 in 10.0 mi South 8.1 mph - N/A   Clear
6:40 PM 53.6 °F - 50.0 °F 88% 29.99 in 10.0 mi South 9.2 mph - N/A   Clear
7:00 PM 55.4 °F - 50.0 °F 82% 29.99 in 10.0 mi South 9.2 mph - N/A   Clear
7:20 PM 55.4 °F - 50.0 °F 82% 29.98 in 10.0 mi South 9.2 mph - N/A   Clear
7:45 PM 55.4 °F - 50.0 °F 82% 29.98 in 10.0 mi SSE 10.4 mph - N/A   Clear
8:05 PM 55.4 °F - 50.0 °F 82% 29.98 in 10.0 mi SSE 12.7 mph - N/A   Clear
8:25 PM 55.4 °F - 50.0 °F 82% 29.97 in 10.0 mi SSE 10.4 mph - N/A   Clear
8:45 PM 55.4 °F - 50.0 °F 82% 29.96 in 10.0 mi SSE 11.5 mph 18.4 mph N/A   Clear
9:10 PM 55.4 °F - 50.0 °F 82% 29.95 in 10.0 mi South 11.5 mph - N/A   Clear
9:30 PM 55.4 °F - 50.0 °F 82% 29.96 in 10.0 mi South 10.4 mph - N/A   Clear
9:50 PM 53.6 °F - 50.0 °F 88% 29.97 in 10.0 mi South 9.2 mph - N/A   Clear
10:10 PM 53.6 °F - 50.0 °F 88% 29.96 in 10.0 mi South 8.1 mph - N/A   Clear
10:55 PM 53.6 °F - 48.2 °F 82% 29.93 in 10.0 mi South 9.2 mph - N/A   Clear
11:15 PM 53.6 °F - 48.2 °F 82% 29.93 in 10.0 mi South 9.2 mph - N/A   Clear
11:35 PM 53.6 °F - 46.4 °F 77% 29.92 in 10.0 mi South 11.5 mph - N/A   Clear